Dewpoint
54 54 53 51 52 53 53 53 52 55 56 55 54 55 55 55 55 55 54 54 55 55
54 53 53 52 51 52 53 52 52 52 56 56 55 54 55 55 54 55 54 53 55 55
54 53 53 54 52 51 51 52 51 51 54 55 55 55 54 54 54 53 54 54 53 52
55 54 53 53 54 53 52 52 52 51 53 55 55 55 55 54 53 52 51 51 51 52
55 55 55 54 53 54 53 53 52 52 52 52 54 53 53 53 53 53 52 51 50 51
54 55 55 55 55 54 54 53 53 53 51 51 53 53 53 53 52 52 52 51 51 50
53 54 54 54 54 55 54 54 53 53 53 52 52 53 54 54 54 53 53 52 52 51
55 54 54 54 54 56 55 54 54 54 53 52 52 52 53 54 53 53 53 53 52 51
54 55 55 54 54 54 56 55 55 55 54 54 53 52 51 53 53 52 52 51 51 51
52 54 55 55 55 54 55 56 55 55 55 55 54 52 51 50 51 52 51 51 51 51
46 47 51 55 55 55 56 55 55 55 55 55 55 53 52 50 50 52 52 52 53 53
41 42 45 50 53 54 54 54 54 55 55 55 54 45 46 49 50 52 49 43 41 44
36 38 39 43 44 53 54 54 54 44 40 40 41 39 43 48 48 45 38 33 34 35
32 33 34 38 39 41 44 41 38 35 33 33 34 34 37 41 42 37 32 31 30 31
Wind_Speed
21 20 20 23 20 20 19 17 15 14 15 15 16 15 15 14 15 15 15 11 14 14
21 20 22 24 24 23 20 17 16 15 16 15 16 18 16 15 17 15 18 21 18 18
23 23 21 20 26 25 23 23 22 19 18 18 18 18 18 17 16 19 19 19 24 27
22 24 21 22 22 24 23 24 26 26 24 23 24 24 23 23 22 23 24 24 25 27
22 22 25 25 23 23 26 25 27 25 27 29 27 27 28 29 27 27 28 27 26 28
25 25 26 25 23 26 26 27 26 28 31 29 30 30 30 30 31 31 30 29 30 33
28 28 28 25 26 26 27 27 28 30 31 31 31 32 31 31 32 32 33 32 32 32
30 29 28 28 28 27 29 28 28 28 30 30 32 32 33 33 33 33 33 32 32 31
26 28 29 29 30 30 29 30 29 32 31 30 30 33 35 32 29 30 31 33 32 30
13 26 30 29 29 31 31 28 32 32 29 30 31 33 35 38 34 32 33 33 29 28
22 21 16 26 31 30 29 32 32 32 31 29 29 30 36 39 31 32 32 28 27 28
21 19 19 19 25 30 28 28 26 24 25 28 26 2 5 15 21 26 15 2 4 5
19 19 19 21 23 19 23 23 14 9 8 9 5 10 5 5 11 11 8 9 11 14
20 18 21 19 20 22 13 12 15 17 15 16 13 11 8 4 11 15 14 14 15 16
Wind_Direction
189 188 189 190 191 196 202 209 198 195 195 199 195 198 202 196 194 198 203 218 232 265
197 193 194 197 198 199 200 202 202 198 199 196 200 206 207 205 203 197 204 202 224 233
198 204 203 196 202 203 206 204 203 203 202 204 210 211 204 207 206 203 208 203 214 221
198 203 207 208 203 207 208 209 212 209 207 205 205 206 211 217 217 216 217 216 216 221
202 204 208 212 209 207 212 212 215 216 217 220 219 217 216 221 220 220 222 226 226 228
199 207 214 214 209 212 213 215 215 217 222 222 224 225 224 224 225 227 228 230 230 232
201 206 210 215 219 218 217 217 216 217 221 224 225 225 224 225 227 229 231 229 227 230
199 202 207 211 215 220 222 223 219 221 224 224 227 228 226 224 224 224 227 230 231 231
199 199 204 207 211 216 220 219 222 226 226 225 228 230 224 221 226 228 231 235 234 236
233 203 207 206 208 215 218 215 222 227 226 227 228 230 229 228 229 233 235 237 237 236
1 350 305 213 210 214 212 215 220 225 226 228 232 230 228 229 226 233 237 235 232 233
1 348 343 339 232 218 214 216 217 220 218 223 227 318 271 234 231 239 249 262 351 276
358 358 359 353 341 285 220 216 202 141 83 70 111 34 19 218 208 185 150 76 59 58
5 11 7 6 8 7 23 99 101 96 69 55 40 34 45 114 162 154 121 101 86 81